Погода в Рудном

Казахстан     52°57′51″N   63°08′00″E
темп.,
°C
ветер,
м/с
пор.,
м/с
влажн.,
%
обл.,
%
осадки,
мм/ч
давл.,
гПа
погр.,
м
2 марта, вт
вт200:00−18з119776 0.0 101820
03:00−17ю129773 0.1 101720
06:00−18ююз129877 0.1 101720
09:00−16ю239693 0.1 101650
12:00−13ююз359482 0.2 1015241
15:00−12юз589195 0.0 1014366
18:00−14юз5109191 0.0 1013364
21:00−17юз6119352 0.0 1013245
3 марта, ср
ср300:00−17юз7139254 0.0 1012285
03:00−13юз81591100 0.0 1011479
06:00−11юз8159299 0.1 1010557
09:00−8юз81493100 0.4 1008634
12:00−5юз91593100 1.1 1008863
15:00−2юз91493100 0.6 10071029
18:00−2юз91494100 1.0 1006923
21:00−2юз81494100 0.5 1005785
4 марта, чт
чт400:00−2ююз81496100 1.1 1005687
03:00−1юз71396100 0.8 1002678
06:00−1юз71296100 1.6 1002619
09:00−2юз61196100 0.6 1001532
12:00−2зюз61097100 1.3 1002557
15:00−3з6986100 0.5 1003589
18:00−6з6118665 0.5 1005500
21:00−10зюз510880 0.0 1008167
5 марта, пт
пт500:00−11зюз612870 0.0 1011251
03:00−11юз715890 0.0 1011367
06:00−10юз8178829 0.0 1010550
09:00−5юз11198899 0.5 1008839
12:00−2юз122084100 0.5 1008965
15:00−1юз122082100 0.0 10081118
18:00−1юз121984100 0.0 10091205
21:00−1зюз111887100 0.1 10091098
6 марта, сб
сб600:00−1юз91785100 0.1 1011838
03:00−1зюз9179098 0.0 1011751
06:00−1з6129499 0.2 1013554
09:00−8зсз348678 0.0 101552
12:00−7зсз248287 0.0 1016175
15:00−5юз2381100 0.0 1016268
18:00−4ююв3691100 0.0 1015192
21:000ююз81396100 0.1 1011633